EW4443 Weather Reports


time (UTC)temp
F
wind
direction
speed
knots
gust
knots
rain 1hr
in
rain 24hr
in
rain mn
in
humidity
%
barometer
mb
20260901112549 78 158 0.0 0.0 0.00 0.13 0.00 70 1012.5
20260901112049 78 158 0.0 0.0 0.00 0.13 0.00 70 1012.1
20260901111550 78 158 0.0 2.6 0.00 0.13 0.00 70 1012.1
20260901111050 78 23 0.0 2.6 0.00 0.13 0.00 70 1012.1
20260901110551 78 68 0.0 0.0 0.00 0.13 0.00 70 1012.1
20260901110050 78 45 0.0 0.0 0.00 0.13 0.00 70 1012.1
20260901105820 78 68 0.0 0.0 0.00 0.13 0.00 70 1012.1
20260901105049 78 68 0.0 0.0 0.00 0.13 0.00 70 1012.1
20260901104549 78 68 0.0 0.0 0.00 0.13 0.00 70 1012.1
20260901104049 78 45 0.0 0.0 0.00 0.13 0.00 70 1012.1
20260901103549 78 225 0.0 0.0 0.00 0.13 0.00 70 1012.1
20260901103049 78 23 0.0 0.0 0.00 0.13 0.00 70 1012.5
20260901102550 78 45 0.0 0.0 0.00 0.13 0.00 70 1012.5
20260901102050 78 23 0.0 0.0 0.00 0.13 0.00 70 1012.5
20260901101551 78 23 0.0 0.0 0.00 0.13 0.00 70 1012.5
20260901101050 78 23 0.0 0.0 0.00 0.13 0.00 70 1012.5
20260901100550 78 23 0.0 0.0 0.00 0.13 0.00 70 1012.1
20260901100048 78 68 0.0 0.0 0.00 0.13 0.00 70 1012.1
20260901095549 78 270 0.0 0.0 0.00 0.13 0.00 70 1012.5
20260901095049 78 203 0.0 0.0 0.00 0.13 0.00 70 1012.1
20260901094548 78 45 0.0 0.0 0.00 0.13 0.00 70 1012.5
20260901094050 78 113 0.0 0.0 0.00 0.13 0.00 70 1012.5
20260901093822 78 23 0.0 0.0 0.00 0.13 0.00 69 1012.5
20260901093321 78 180 0.0 0.0 0.00 0.13 0.00 69 1012.1
20260901092550 78 23 0.0 0.0 0.00 0.13 0.00 69 1012.5
20260901092051 78 158 0.0 0.0 0.00 0.13 0.00 69 1012.5
20260901091549 79 158 0.0 0.0 0.00 0.13 0.00 70 1012.5
20260901091320 79 158 0.0 0.0 0.00 0.13 0.00 70 1012.5
20260901090549 79 158 0.0 0.0 0.00 0.13 0.00 69 1012.8
20260901090048 79 158 0.0 0.0 0.00 0.13 0.00 69 1012.5
20260901085550 79 158 0.0 0.0 0.00 0.13 0.00 69 1012.5
20260901085051 79 135 0.0 0.0 0.00 0.13 0.00 69 1012.5
20260901084550 79 135 0.0 0.0 0.00 0.13 0.00 68 1012.5
20260901084050 79 158 0.0 0.0 0.00 0.13 0.00 66 1012.5
20260901083550 79 135 0.0 0.0 0.00 0.13 0.00 66 1012.5
20260901083320 79 158 0.0 0.0 0.00 0.13 0.00 66 1012.5
20260901082548 79 180 0.0 0.0 0.00 0.13 0.00 66 1012.8
20260901082049 79 135 0.0 0.0 0.00 0.13 0.00 68 1012.5
20260901081820 79 225 0.0 0.0 0.00 0.13 0.00 66 1012.5
20260901081049 79 203 0.0 0.0 0.00 0.13 0.00 66 1012.5
20260901080550 79 203 0.0 0.0 0.00 0.13 0.00 66 1012.5
20260901080050 79 180 0.0 0.0 0.00 0.13 0.00 65 1012.5
20260901075826 79 180 0.0 0.9 0.00 0.13 0.00 65 1012.5
20260901075050 79 180 0.0 0.9 0.00 0.13 0.00 65 1012.5
20260901074549 80 203 0.0 0.0 0.00 0.13 0.00 65 1012.1
20260901074049 80 203 0.0 1.7 0.00 0.13 0.00 65 1012.1
20260901073549 80 180 0.0 2.6 0.00 0.13 0.00 65 1012.5
20260901073048 80 180 0.0 2.6 0.00 0.13 0.00 65 1012.1
20260901072548 80 293 0.0 1.7 0.00 0.13 0.00 65 1012.5
20260901072049 80 158 0.0 1.7 0.00 0.13 0.00 65 1012.5
20260901071550 80 90 0.0 1.7 0.00 0.13 0.00 65 1012.5
20260901071050 80 270 0.0 0.0 0.00 0.13 0.00 65 1012.1
20260901070550 80 135 0.0 0.0 0.00 0.13 0.00 65 1012.1
20260901070050 80 90 0.0 0.0 0.00 0.13 0.00 65 1012.1
20260901065550 80 315 0.0 1.7 0.00 0.13 0.13 65 1012.1
20260901065320 80 0 0.0 1.7 0.00 0.13 0.13 65 1012.1
20260901064819 80 338 0.0 0.9 0.00 0.13 0.13 63 1012.1
20260901064048 80 23 0.0 0.9 0.00 0.13 0.13 63 1011.8
20260901063821 80 0 0.0 0.9 0.00 0.13 0.13 63 1011.8
20260901063033 81 338 0.0 1.7 0.00 0.13 0.13 63 1011.8
20260901062536 81 338 0.0 0.9 0.00 0.13 0.13 63 1012.1
20260901062531 81 0 0.0 0.9 0.00 0.13 0.13 63 1012.1
20260901061531 81 293 0.0 0.9 0.00 0.13 0.13 63 1012.1
20260901061030 81 23 0.0 0.0 0.00 0.13 0.13 61 1011.8
20260901060529 81 23 0.0 0.0 0.00 0.13 0.13 61 1012.1
20260901060031 81 0 0.0 0.0 0.00 0.13 0.13 61 1012.1
20260901055800 81 293 0.0 0.9 0.00 0.13 0.13 61 1012.1
20260901055031 81 0 0.0 0.9 0.00 0.13 0.13 60 1011.8
20260901054802 81 225 0.0 1.7 0.00 0.13 0.13 59 1011.8
20260901054302 81 315 0.0 1.7 0.00 0.13 0.13 59 1011.8
20260901053531 81 203 0.0 1.7 0.00 0.13 0.13 58 1012.1
20260901053031 81 270 0.0 1.7 0.00 0.13 0.13 58 1012.1
20260901052530 81 225 0.0 0.0 0.00 0.13 0.13 59 1012.1
20260901052030 82 225 0.0 0.0 0.00 0.13 0.13 59 1011.8
20260901051529 82 180 0.0 1.7 0.00 0.13 0.13 58 1012.1
20260901051030 82 270 0.0 1.7 0.00 0.14 0.13 56 1012.1
20260901050530 82 225 0.0 0.9 0.00 0.14 0.13 58 1011.8
20260901050032 82 248 0.0 0.0 0.00 0.14 0.13 58 1012.1
20260901045802 82 225 0.0 0.0 0.00 0.14 0.13 56 1011.8
20260901045031 82 248 0.0 0.0 0.00 0.14 0.13 56 1012.1
20260901044803 82 248 0.0 0.0 0.00 0.14 0.13 55 1012.1
20260901044031 82 248 0.0 0.0 0.00 0.14 0.13 55 1012.1
20260901043529 82 225 0.0 0.0 0.00 0.14 0.13 55 1011.8
20260901043030 82 180 0.0 0.0 0.00 0.14 0.13 55 1011.8
20260901042530 82 158 0.0 3.5 0.00 0.14 0.13 55 1012.1
20260901042030 83 180 0.9 3.5 0.00 0.14 0.13 55 1012.1
20260901041531 83 180 0.0 3.5 0.00 0.15 0.13 54 1011.8
20260901041303 83 180 0.0 5.2 0.00 0.16 0.13 53 1011.8
20260901040531 83 180 0.9 5.2 0.00 0.25 0.13 53 1011.8
20260901040031 83 158 0.0 2.6 0.00 0.31 0.13 51 1011.8
20260901035531 83 45 0.0 0.9 0.00 0.31 0.13 53 1011.8
20260901035030 83 315 0.0 0.9 0.00 0.31 0.13 51 1011.8
20260901034530 83 113 0.0 1.7 0.00 0.31 0.13 50 1011.8
20260901034300 83 135 0.0 3.5 0.00 0.31 0.13 53 1011.8
20260901033530 83 113 0.0 3.5 0.00 0.31 0.13 53 1011.5
20260901033030 83 180 0.0 3.5 0.00 0.31 0.13 53 1011.8
20260901032531 84 90 0.9 3.5 0.00 0.31 0.13 53 1011.5
20260901032031 84 338 0.9 4.3 0.00 0.31 0.13 53 1011.5
20260901031531 84 180 0.9 5.2 0.00 0.31 0.13 54 1011.1
20260901031031 84 68 0.9 6.1 0.00 0.31 0.13 54 1011.1
20260901030530 83 203 0.9 6.1 0.00 0.31 0.13 53 1011.1
20260901030301 83 158 0.0 2.6 0.00 0.31 0.13 51 1011.1
20260901025800 83 180 0.0 2.6 0.00 0.31 0.13 50 1011.1
20260901025030 83 158 0.0 2.6 0.00 0.31 0.13 51 1010.8
20260901024531 83 158 0.0 2.6 0.00 0.31 0.13 51 1010.8
20260901024302 83 180 0.0 0.0 0.00 0.31 0.13 55 1010.8
20260901023531 83 180 0.0 0.0 0.00 0.31 0.13 54 1010.8
20260901023031 83 180 0.0 0.0 0.00 0.31 0.13 51 1010.5
20260901022531 84 180 0.0 0.0 0.00 0.31 0.13 56 1010.8
20260901022031 84 23 0.0 0.0 0.00 0.31 0.13 56 1010.8
20260901021529 84 45 0.0 0.0 0.00 0.31 0.13 56 1010.8
20260901021305 84 45 0.0 0.0 0.00 0.31 0.13 54 1010.5
20260901021030 84 45 0.0 0.0 0.00 0.31 0.13 55 1010.5
20260901020030 85 45 0.0 0.0 0.00 0.31 0.13 51 1010.0
20260901015531 85 45 0.0 0.0 0.00 0.31 0.13 51 1010.0
20260901015031 85 68 0.0 0.0 0.00 0.31 0.13 55 1010.0
20260901014531 85 45 0.0 0.0 0.00 0.31 0.13 53 1010.0
20260901014302 85 45 0.0 0.0 0.00 0.31 0.13 53 1010.0
20260901013531 85 45 0.0 0.0 0.00 0.31 0.13 51 1010.0
20260901013029 85 23 0.0 0.9 0.00 0.31 0.13 50 1010.5
20260901012800 86 45 0.0 0.9 0.00 0.31 0.13 50 1010.0
20260901012300 86 45 0.0 0.0 0.00 0.31 0.13 51 1010.0
20260901011530 86 23 0.0 0.0 0.00 0.31 0.13 51 1010.5
20260901011031 86 23 0.0 4.3 0.00 0.31 0.13 50 1010.5
20260901010531 86 23 0.9 4.3 0.00 0.31 0.13 50 1010.5
20260901010033 86 45 0.0 3.5 0.00 0.31 0.13 50 1010.0
20260901005531 86 68 0.9 3.5 0.00 0.31 0.13 50 1010.5
20260901005032 86 203 0.0 2.6 0.00 0.31 0.13 48 1010.0
20260901004530 87 158 0.0 2.6 0.00 0.31 0.13 48 1010.5
20260901004029 87 225 0.0 2.6 0.00 0.31 0.13 49 1010.5
20260901003530 87 203 0.0 2.6 0.00 0.31 0.13 49 1010.5
20260901003030 87 270 0.0 1.7 0.00 0.31 0.13 46 1010.5
20260901002801 87 248 0.0 1.7 0.00 0.31 0.13 49 1010.5
20260901002030 87 270 0.0 1.7 0.00 0.31 0.13 49 1010.5
20260901001531 87 203 0.0 1.7 0.00 0.31 0.13 48 1010.5
20260901001031 87 45 0.0 2.6 0.00 0.31 0.13 50 1010.5
20260901000531 87 270 0.0 2.6 0.00 0.31 0.13 46 1010.5
20260901000030 87 203 0.0 3.5 0.00 0.31 0.13 46 1010.8
20260831235529 87 315 0.9 3.5 0.00 0.31 0.13 46 1010.8
20260831235030 87 180 0.0 4.3 0.00 0.31 0.13 46 1010.8
20260831234529 87 113 0.9 4.3 0.00 0.31 0.13 46 1010.8
20260831234030 87 180 0.9 3.5 0.00 0.31 0.13 46 1010.8
20260831233801 87 225 0.9 2.6 0.00 0.31 0.13 45 1010.8
20260831233030 87 248 0.0 4.3 0.00 0.31 0.13 45 1010.8
20260831232532 87 180 0.9 4.3 0.00 0.31 0.13 45 1010.8
20260831232031 87 180 0.0 4.3 0.00 0.31 0.13 50 1010.8
20260831231530 87 180 0.9 6.1 0.00 0.31 0.13 48 1010.8
20260831231300 87 158 0.9 6.1 0.00 0.31 0.13 49 1010.8
20260831230529 87 270 0.9 4.3 0.00 0.31 0.13 50 1011.1
20260831230029 87 203 0.9 4.3 0.00 0.31 0.13 49 1011.1
20260831225529 87 270 0.0 5.2 0.00 0.31 0.13 50 1011.1
20260831225030 87 225 0.9 5.2 0.00 0.31 0.13 50 1011.1
20260831224530 87 0 0.9 3.5 0.00 0.31 0.13 48 1011.1
20260831224030 87 203 0.9 4.3 0.00 0.31 0.13 48 1011.5
20260831223530 87 180 0.9 4.3 0.00 0.31 0.13 48 1011.5
20260831223010 87 45 0.9 5.2 0.00 0.31 0.13 49 1011.1
20260831222511 87 248 0.9 5.2 0.00 0.31 0.13 46 1011.5
20260831222010 88 158 0.9 5.2 0.00 0.31 0.13 51 1011.8
20260831221510 87 270 0.9 4.3 0.00 0.31 0.13 48 1012.1
20260831221010 87 225 0.9 4.3 0.00 0.31 0.13 51 1011.8
20260831220511 88 0 0.0 4.3 0.00 0.31 0.13 50 1012.1
20260831220242 87 23 0.9 4.3 0.00 0.31 0.13 54 1012.1
20260831215511 87 225 0.9 6.1 0.00 0.31 0.13 54 1012.5
20260831215011 87 158 0.9 6.1 0.00 0.31 0.13 53 1012.8
20260831214511 87 225 0.9 5.2 0.00 0.31 0.13 53 1012.8
20260831214011 86 0 0.9 5.2 0.00 0.31 0.13 55 1013.3
20260831213510 86 113 0.9 5.2 0.00 0.31 0.13 55 1013.3
20260831213010 85 180 0.9 6.1 0.00 0.31 0.13 56 1013.3
20260831212510 85 135 0.9 7.8 0.00 0.31 0.13 55 1013.3
20260831212242 85 203 1.7 7.8 0.00 0.31 0.13 55 1013.6
20260831211511 84 180 0.9 5.2 0.00 0.31 0.13 58 1013.6
20260831211011 84 68 0.9 5.2 0.00 0.31 0.13 56 1013.9
20260831210511 84 225 0.9 6.1 0.00 0.31 0.13 58 1013.9
20260831210010 83 203 0.9 6.1 0.00 0.31 0.13 58 1013.9
20260831205514 83 158 0.9 5.2 0.00 0.31 0.13 59 1014.3
20260831205510 83 203 0.9 3.5 0.00 0.31 0.13 55 1013.9
20260831204510 83 225 0.9 5.2 0.00 0.31 0.13 60 1014.3
20260831204009 83 225 0.9 4.3 0.00 0.31 0.13 61 1014.3
20260831203511 82 158 0.9 8.7 0.00 0.31 0.13 63 1014.3
20260831203010 81 135 1.7 8.7 0.00 0.31 0.13 63 1014.6
20260831202510 81 225 0.9 7.8 0.00 0.31 0.13 63 1014.3
20260831202010 81 270 0.9 3.5 0.00 0.31 0.13 63 1014.3
20260831201510 80 225 0.9 5.2 0.00 0.31 0.13 65 1014.6
20260831201009 80 203 0.9 6.1 0.00 0.31 0.13 65 1014.3
20260831200509 80 158 1.7 6.1 0.00 0.31 0.13 68 1014.3
20260831200009 80 203 1.7 7.8 0.00 0.31 0.13 69 1014.3
20260831195509 80 180 1.7 8.7 0.00 0.31 0.13 68 1014.6
20260831195010 79 180 0.9 8.7 0.00 0.31 0.13 73 1014.6
20260831194510 78 225 0.9 4.3 0.00 0.31 0.13 73 1015.0
20260831194010 78 0 0.9 5.2 0.00 0.31 0.13 73 1014.6
20260831193510 78 180 0.9 5.2 0.00 0.31 0.13 74 1014.6
20260831193242 78 90 0.9 3.5 0.00 0.31 0.13 73 1015.0
20260831192509 78 315 0.9 4.3 0.00 0.31 0.13 74 1014.6
20260831192009 78 293 0.9 5.2 0.00 0.31 0.13 73 1014.6
20260831191511 77 225 0.9 5.2 0.00 0.31 0.13 75 1015.0
20260831191240 77 225 0.9 5.2 0.00 0.31 0.13 75 1015.0
20260831190509 77 158 0.9 5.2 0.00 0.31 0.13 76 1015.0
20260831190010 77 158 0.9 6.1 0.00 0.31 0.13 80 1015.0
20260831185510 76 270 0.9 7.0 0.00 0.31 0.13 79 1014.6
20260831185010 76 45 0.9 8.7 0.00 0.31 0.13 79 1015.0
20260831184510 76 180 0.9 8.7 0.00 0.31 0.13 78 1015.0
20260831184008 76 90 0.9 4.3 0.00 0.31 0.13 79 1015.0
20260831183509 76 158 0.9 4.3 0.00 0.31 0.13 79 1014.6
20260831183010 76 180 0.9 7.8 0.00 0.31 0.13 80 1014.6
20260831182508 76 180 0.9 7.8 0.00 0.31 0.13 81 1014.6
20260831182009 76 158 0.9 7.0 0.00 0.31 0.13 83 1015.0
20260831181510 76 203 0.9 5.2 0.00 0.31 0.13 85 1015.0
20260831181242 76 248 0.9 4.3 0.00 0.31 0.13 86 1015.0
20260831180510 76 180 0.9 4.3 0.00 0.31 0.13 86 1015.0
20260831180009 76 158 0.9 3.5 0.00 0.31 0.13 86 1015.0
20260831175513 75 203 0.0 2.6 0.00 0.31 0.13 86 1015.0
20260831175508 76 248 0.0 1.7 0.00 0.31 0.13 86 1015.0
20260831174508 75 0 0.9 3.5 0.00 0.31 0.13 86 1015.3
20260831174008 75 203 0.9 3.5 0.00 0.31 0.13 88 1015.6
20260831173509 75 338 0.0 2.6 0.00 0.31 0.13 88 1015.3
20260831173242 75 45 0.0 2.6 0.00 0.31 0.13 88 1015.3
20260831172509 75 315 0.0 1.7 0.00 0.31 0.13 88 1015.6
20260831172009 75 45 0.0 1.7 0.00 0.31 0.13 88 1015.6
20260831171509 75 270 0.0 1.7 0.01 0.31 0.13 88 1015.3
20260831171009 75 23 0.0 1.7 0.02 0.31 0.13 88 1015.3
20260831170508 75 270 0.0 3.5 0.03 0.31 0.13 88 1015.3
20260831170008 75 293 0.0 3.5 0.04 0.31 0.13 88 1015.3
20260831165508 75 23 0.0 2.6 0.05 0.31 0.13 88 1015.3
20260831165008 75 203 0.9 3.5 0.05 0.31 0.13 88 1015.3
20260831164509 75 45 0.9 4.3 0.05 0.31 0.13 88 1015.0
20260831164009 75 45 0.9 4.3 0.06 0.31 0.13 88 1015.3
20260831163509 75 68 0.9 4.3 0.06 0.31 0.13 88 1015.0
20260831163009 75 135 0.9 4.3 0.07 0.31 0.13 88 1015.3
20260831162509 75 45 0.9 5.2 0.08 0.31 0.13 88 1015.0
20260831162008 75 45 0.9 5.2 0.09 0.31 0.13 88 1015.3
20260831161508 75 23 0.9 4.3 0.09 0.30 0.12 88 1015.0
20260831161008 75 135 0.9 6.1 0.08 0.29 0.11 86 1014.6
20260831160509 75 68 1.7 6.1 0.07 0.28 0.10 86 1014.6
20260831160009 75 90 1.7 6.1 0.06 0.27 0.09 86 1014.6
20260831155510 75 68 1.7 6.1 0.05 0.26 0.08 86 1014.6
20260831155009 75 90 1.7 6.1 0.05 0.26 0.08 86 1014.6
20260831154509 75 45 1.7 6.1 0.06 0.26 0.08 86 1015.0
20260831154009 74 45 0.9 4.3 0.05 0.25 0.07 86 1015.0
20260831153449 74 45 0.9 3.5 0.06 0.25 0.07 86 1015.0
20260831152949 74 45 0.0 0.0 0.06 0.24 0.06 85 1015.3
20260831152720 74 0 0.0 0.0 0.05 0.23 0.05 85 1015.3
20260831151949 74 45 0.0 2.6 0.04 0.22 0.04 85 1015.0
20260831151449 74 135 0.0 3.5 0.03 0.21 0.03 83 1015.0
20260831150950 74 45 0.0 5.2 0.03 0.21 0.03 83 1015.0
20260831150451 74 45 0.9 6.1 0.03 0.21 0.03 83 1014.6
20260831145950 74 270 0.9 6.1 0.03 0.21 0.03 83 1015.0
20260831145454 75 225 0.9 3.5 0.03 0.21 0.03 81 1015.0
20260831145450 74 158 0.9 3.5 0.03 0.21 0.03 83 1014.6
20260831144719 75 180 0.9 4.3 0.02 0.20 0.02 81 1014.6
20260831143949 76 180 0.9 4.3 0.02 0.20 0.02 80 1014.6
20260831143449 77 225 0.9 6.1 0.01 0.19 0.01 78 1014.6
20260831142950 78 203 0.9 6.1 0.00 0.18 0.00 75 1014.6
20260831142721 79 180 1.7 5.2 0.00 0.18 0.00 71 1014.6
20260831141950 79 225 0.9 5.2 0.00 0.18 0.00 70 1014.3
20260831141450 79 270 0.9 6.1 0.00 0.18 0.00 70 1013.9
20260831140950 79 270 0.9 6.1 0.00 0.18 0.00 70 1013.6
20260831140449 79 203 0.9 5.2 0.00 0.18 0.00 70 1013.9
20260831140220 79 225 0.9 5.2 0.00 0.18 0.00 70 1013.3
20260831135720 80 293 0.9 5.2 0.00 0.18 0.00 70 1013.3
20260831134949 80 270 0.9 4.3 0.00 0.18 0.00 69 1013.3
20260831134449 80 315 0.9 4.3 0.00 0.18 0.00 68 1012.8
20260831133952 80 248 0.9 5.2 0.00 0.18 0.00 66 1012.8
20260831133450 80 158 0.9 5.2 0.00 0.18 0.00 65 1012.5
20260831132950 80 180 0.9 8.7 0.00 0.18 0.00 65 1012.8
20260831132449 80 180 1.7 8.7 0.00 0.18 0.00 63 1012.5
20260831131950 80 293 0.9 4.3 0.00 0.18 0.00 63 1012.5
20260831131448 80 180 0.9 4.3 0.00 0.18 0.00 63 1012.1
20260831130949 80 225 0.9 4.3 0.00 0.18 0.00 63 1012.1
20260831130452 80 180 0.0 3.5 0.00 0.18 0.00 63 1012.1
20260831130448 80 203 0.0 3.5 0.00 0.18 0.00 63 1012.1
20260831125450 80 248 0.9 4.3 0.00 0.18 0.00 65 1012.1
20260831125221 80 203 0.9 3.5 0.00 0.18 0.00 65 1011.8
20260831124450 80 158 0.9 6.1 0.00 0.18 0.00 65 1012.1
20260831123949 80 180 1.7 6.1 0.00 0.18 0.00 66 1012.1
20260831123449 80 203 0.9 4.3 0.00 0.18 0.00 68 1011.8
20260831123218 80 225 0.9 3.5 0.00 0.18 0.00 66 1011.8
20260831122448 80 158 0.9 3.5 0.00 0.18 0.00 66 1011.8
20260831121948 80 180 0.0 3.5 0.00 0.18 0.00 65 1011.8
20260831121719 80 158 0.9 3.5 0.00 0.18 0.00 65 1011.8
20260831120949 80 158 0.9 4.3 0.00 0.18 0.00 65 1011.5
20260831120449 80 180 0.9 4.3 0.00 0.18 0.00 65 1011.5
20260831115949 80 158 0.0 3.5 0.00 0.18 0.00 66 1011.5
20260831115449 80 225 0.9 4.3 0.00 0.18 0.00 66 1011.1
20260831115220 80 225 0.9 4.3 0.00 0.18 0.00 66 1011.1
20260831114448 80 158 0.9 4.3 0.00 0.18 0.00 66 1011.5
20260831113948 80 158 0.9 1.7 0.00 0.18 0.00 65 1011.1
20260831113448 80 158 0.0 1.7 0.00 0.18 0.00 65 1011.1